Flag for U.S.A. Weather past 2 weeks in San Diego, California, U.S.A.

51 °F


Feels Like: 49 °F
Forecast: 51 / 63 °F
Wind: 7 mph from East

Location: San Diego - North Island

Current Time: Nov 28, 2015 at 6:06:07 AM

Latest Report: Nov 28, 2015 at 4:52 AM

Visibility: 10 mi

Pressure: 30.04 "Hg

Humidity: 71%

Dew point: 42 °F

Location of San DiegoLocation

Historic Weather in San Diego — Graph


San Diego temperature yesterday

Maximum temperature yesterday: 60 °F (at 12:52 PM)
Minimum temperature yesterday: 50 °F (at 11:52 PM)
Average temperature yesterday: 55 °F

Past Weeks' High & Low Weather Summary

High83 °F (Nov 21, 11:52 AM)100% (Nov 20, 9:52 PM)30.19 "Hg (Nov 20, 9:52 PM)
Low45 °F (Nov 17, 5:52 AM)15% (Nov 22, 10:52 AM)29.85 "Hg (Nov 22, 4:52 PM)
Average60 °F60%29.96 "Hg
* Reported Nov 13 4:52 AM — Nov 28 4:52 AM, San Diego, Weather by CustomWeather, © 2015

Note: Actual official high and low records may vary slightly from our data, if they occured in-between our weather recording intervals... More about our weather records


San Diego weather history for previous 24 hours

Time TempWeatherWind HumidityBarometerVisibility
4:52 AM
Sat, Nov 28
51 °FOvercast.7 mph71%30.04 "Hg10 mi
3:52 AM51 °FOvercast.3 mph83%30.03 "Hg10 mi
2:52 AM51 °FPassing clouds.No wind80%30.03 "Hg10 mi
1:52 AM51 °FOvercast.3 mph80%30.04 "Hg10 mi
12:52 AM51 °FPassing clouds.No wind80%30.03 "Hg10 mi
11:52 PM
Fri, Nov 27
50 °FClear.No wind83%30.03 "Hg10 mi
10:52 PM52 °FClear.No wind80%30.04 "Hg10 mi
9:52 PM51 °FPassing clouds.No wind83%30.04 "Hg10 mi
8:52 PM52 °FPassing clouds.5 mph83%30.04 "Hg10 mi
7:52 PM53 °FPassing clouds.6 mph83%30.03 "Hg10 mi
6:52 PM55 °FPassing clouds.No wind74%30.02 "Hg10 mi
5:52 PM55 °FPartly cloudy.No wind74%30.01 "Hg10 mi
4:52 PM55 °FLight rain. Partly cloudy.8 mph74%29.99 "Hg7 mi
3:52 PM59 °FBroken clouds.6 mph62%29.98 "Hg10 mi
2:52 PM59 °FBroken clouds.6 mph62%29.97 "Hg10 mi
1:52 PM59 °FBroken clouds.7 mph60%29.97 "Hg10 mi
12:52 PM60 °FBroken clouds.7 mph58%29.98 "Hg10 mi
11:52 AM59 °FBroken clouds.9 mph62%30.00 "Hg10 mi
10:52 AM59 °FBroken clouds.5 mph62%30.02 "Hg10 mi
9:52 AM57 °FBroken clouds.9 mph72%30.03 "Hg10 mi
8:52 AM55 °FBroken clouds.6 mph77%30.02 "Hg10 mi
7:52 AM52 °FLight rain. Broken clouds.7 mph89%30.02 "Hg10 mi
6:52 AM51 °FBroken clouds.5 mph92%30.00 "Hg10 mi
Weather by CustomWeather, © 2015

See weather overviewHow to use our weather pages